Location: ???????
(56.2167°N, 38.0500°E)
Time: 07:02:56
(UTC+00:00)

USA 234 - Pass Details

Date: 19 May 2025
Orbit: 1097 x 1111 km, 123.0° (Epoch: 19 June)

Event Time Altitude Azimuth Distance (km) Brightness Sun altitude
Rises 18:58:59 0° 65° (ENE) 3,925 6.1 -7.9°
Reaches altitude 10° 19:01:33 10° 70° (ENE) 2,967 5.4 -8.1°
Maximum altitude 19:07:57 53° 147° (SSE) 1,331 3.4 -8.6°
Drops below altitude 10° 19:14:21 10° 223° (SW) 2,966 5.4 -9.0°
Sets 19:16:54 0° 228° (SW) 3,924 6.0 -9.2°
